ELEKTRO-L 2

Last updated on Tue Oct 14 2025 00:02:22 GMT+0000 (Coordinated Universal Time)

1 41105U 15074A 25286.62734542 -.00000126 00000+0 00000+0 0 9992 2 41105 6.0707 73.5439 0003149 181.4403 338.8080 1.00272463 36039
UTC large
Height (km)
Speed (km/s)
/
Latitude / Longitude
Inclination (degrees)
Orbital Period (minutes)
Azimuth
Elevation
Range (km)
Doppler Factor

Next 0 passes for location: London (51.5072 / 0.1276)

Sorry there are no passes over London.